[[{"header":{"parameterUnit":"m.s-1","parameterCategory":1,"la1":30.2991,"la2":30.254,"lo1":-89.0895,"lo2":-89.0444,"dy":0.0017,"dx":0.0017,"nx":28,"ny":28,"refTime":"2023-07-22T03:00:00:Z","depth":0,"parameterNumber":2,"parameterNumberName":"U-component_of_WINDS"},"data":[0,0,0,0,0,0,0,0,0,0,0,0,0,0,0,0,0,0,0,0,0,0,0,0,0,0,0,0,0,0,0,0,0,0,0,0,0,0,0,0,0,0,0,0,0,0,0,0,0,0,0,0,0,0,0,0,0,0,3.8358,3.8358,0,3.8426,3.8427,3.8427,3.8396,3.8394,3.8392,3.8391,3.8463,3.8466,3.847,0,0,0,0,0,0,0,0,0,0,0,0,0,3.8203,3.8206,3.8358,3.8358,3.8359,3.8426,3.8427,3.8427,3.8396,3.8394,3.8392,3.839,3.8462,3.8466,3.847,0,0,0,0,0,0,0,0,0,0,0,0,0,3.8271,3.8207,3.8357,3.8352,3.8352,3.8425,3.8427,3.8428,3.8397,3.8394,3.8391,3.8389,3.8461,3.8466,3.8471,3.8555,0,0,3.8487,3.8489,0,0,0,0,0,0,0,0,3.8267,3.8277,3.8352,3.8352,3.8352,3.84,3.8399,3.8471,3.8397,3.838,3.8391,3.8388,3.8444,3.8451,3.8469,3.8558,3.8561,3.8487,3.8491,3.8493,3.8494,0,0,0,0,0,0,0,3.8262,3.8274,3.8385,3.8353,3.8353,3.8347,3.8353,3.8412,3.8426,3.8381,3.8379,3.8387,3.8444,3.8464,3.8471,3.8563,3.8487,3.8492,3.8495,3.8497,3.8726,3.8729,0,0,0,0,0,0,3.8258,3.827,3.8382,3.8387,3.8302,3.8351,3.8359,3.8387,3.8425,3.8428,3.8389,3.8386,3.8456,3.8464,3.8473,3.8575,3.8493,3.8498,3.8501,3.8723,3.8727,3.873,0,0,0,0,0,0,3.8254,3.8268,3.838,3.8328,3.8341,3.8357,3.8389,3.839,3.841,3.8431,3.8434,3.8407,3.8455,3.8466,3.8535,3.8577,3.85,3.8505,3.872,3.8724,3.8728,3.8779,0,0,0,0,0,0,3.825,3.8267,3.8298,3.8329,3.8344,3.844,3.8391,3.8393,3.8419,3.8414,3.8449,3.8452,3.8453,3.8527,3.854,3.8583,3.8509,3.8716,3.8722,3.8727,3.8774,3.8785,3.8794,0,0,0,0,0,3.8245,3.831,3.83,3.8314,3.8384,3.8442,3.8451,3.8451,3.8422,3.8455,3.8468,3.8451,3.857,3.8535,3.8549,3.8594,3.8714,3.872,3.8727,3.877,3.8783,3.8794,0,0,0,0,0,0,3.8285,3.8314,3.8303,3.838,3.8409,3.8437,3.8477,3.8465,3.8503,3.8497,3.8496,3.8504,3.8577,3.8592,3.8552,3.8678,3.8638,3.8648,3.8666,3.8678,3.8688,3.8683,3.8514,0,0,0,0,0,3.8302,3.8346,3.837,3.8436,3.8451,3.8462,3.8487,3.8484,3.8515,3.8527,3.8546,3.8577,3.8621,3.8651,3.8693,3.8776,3.8784,3.8814,3.8825,3.8833,3.8841,3.8888,3.8902,3.8752,3.8751,3.8751,0,0,3.8339,3.8361,3.8389,3.8444,3.8466,3.8513,3.8472,3.8523,3.8558,3.8535,3.8602,3.8617,3.8651,3.8729,3.8764,3.8744,3.8885,3.8841,3.8848,3.8852,3.8897,3.8911,3.8924,3.8756,3.8755,3.8754,0,0,3.8431,3.8451,3.8509,3.8532,3.8566,3.8573,3.8587,3.8617,3.8626,3.8693,3.8677,3.8719,3.8796,3.8821,3.8844,3.8947,3.8933,3.8961,3.9014,3.906,3.9072,3.9083,3.9121,3.9134,3.897,3.897,3.897,0,3.8473,3.8542,3.854,3.8593,3.8618,3.8599,3.8658,3.8681,3.8727,3.8746,3.8723,3.8819,3.8841,3.8925,3.895,3.8969,3.8986,3.8957,3.907,3.9081,3.9091,3.9127,3.9141,3.8973,3.8973,3.8972,3.8972,0,3.8593,3.8641,3.8684,3.8729,3.8759,3.8815,3.8822,3.8854,3.8849,3.8859,3.8928,3.8954,3.9001,3.9021,3.9017,3.9105,3.9092,3.907,3.9029,3.9109,3.9143,3.9156,3.8978,3.8977,3.8976,3.8975,0,0,3.8711,3.8755,3.8771,3.8791,3.8828,3.8866,3.8922,3.8968,3.8995,3.9028,3.9076,3.9141,3.9122,3.9148,3.9147,3.9187,3.9269,3.916,3.9161,3.918,3.9369,3.9385,3.9401,3.9259,3.9262,3.9264,3.9366,0,3.8806,3.8903,3.8903,3.8993,3.9038,3.9021,3.907,3.9098,3.911,3.9151,3.9163,3.9211,3.918,3.9196,3.9235,3.925,3.9307,3.9243,3.9305,3.9307,3.9297,3.9419,3.9437,3.9532,3.9379,3.9382,3.9383,0,3.893,3.8967,3.9061,3.9092,3.9111,3.9155,3.9198,3.9237,3.927,3.9275,3.9305,3.9298,3.9356,3.9314,3.9395,3.9351,3.9377,3.9388,3.9392,3.9398,3.935,3.9429,3.9562,3.9577,3.9404,3.9402,3.9401,0,3.9008,3.9082,3.9148,3.9166,3.9203,3.9235,3.9252,3.9282,3.931,3.9348,3.9367,3.9411,3.9436,3.9471,3.9477,3.9445,3.9559,3.9516,3.9566,3.9566,3.9591,3.959,3.9731,3.9607,3.9606,3.9606,3.9606,0,3.9115,3.9174,3.9183,3.9224,3.929,3.929,3.9355,3.937,3.9397,3.9442,3.943,3.9472,3.9476,3.952,3.9525,3.9592,3.9603,3.961,3.9611,3.9612,3.9611,3.9629,3.9623,3.961,3.9609,3.9608,3.9608,0,3.9214,3.9222,3.9293,3.9324,3.9333,3.938,3.9406,3.9446,3.9456,3.9512,3.9525,3.9542,3.9593,3.9602,3.9662,3.9666,3.9746,3.974,3.9735,3.9735,3.9784,3.978,3.9942,3.9964,3.9825,3.9826,3.9827,0,3.9281,3.9326,3.9361,3.939,3.9409,3.9455,3.9483,3.9486,3.9517,3.9558,3.9593,3.9643,3.9683,3.9765,3.9783,3.983,3.9825,3.9879,3.9832,3.9832,3.9827,3.9825,3.983,3.9888,3.9889,3.9891,3.9892,0,3.9401,3.9404,3.9445,3.9489,3.9523,3.9558,3.9591,3.9615,3.9622,3.9658,3.9709,3.974,3.9802,3.9852,3.9899,3.9918,3.9907,3.9906,3.992,3.9922,3.9918,3.9922,3.9761,3.9903,3.9901,3.9901,3.99,3.99,3.9488,3.9527,3.9558,3.9605,3.963,3.9661,3.97,3.9715,3.9758,3.9808,3.9807,3.9865,3.9898,3.9959,3.9981,4.0027,4.001,4.003,4.0035,4.004,4.0046,3.991,4.0035,4.0035,4.0035,4.0034,4.0034,0,3.9608,3.9627,3.967,3.9716,3.9754,3.9739,3.9775,3.9808,3.9858,3.9889,3.9929,3.9989,4.0038,4.006,4.0109,4.0141,4.0137,4.0154,4.0152,4.0157,4.0057,4.0041,4.0156,4.0156,4.0156,4.0156,4.0156,4.0156,3.9675,3.9741,3.9747,3.9826,3.9845,3.9901,3.9923,3.9952,3.9977,4.0045,4.0085,4.0099,4.0127,4.0177,4.0222,4.0227,4.0246,4.0265,4.0269,4.0176,4.0163,4.0152,4.0136,4.0269,4.0269,4.0364,4.0365,4.0365]},{"header":{"parameterUnit":"m.s-1","parameterCategory":1,"la1":30.2991,"la2":30.254,"lo1":-89.0895,"lo2":-89.0444,"dy":0.0017,"dx":0.0017,"nx":28,"ny":28,"refTime":"2023-07-22T03:00:00:Z","depth":0,"parameterNumber":3,"parameterNumberName":"V-component_of_WINDS"},"data":[0,0,0,0,0,0,0,0,0,0,0,0,0,0,0,0,0,0,0,0,0,0,0,0,0,0,0,0,0,0,0,0,0,0,0,0,0,0,0,0,0,0,0,0,0,0,0,0,0,0,0,0,0,0,0,0,0,0,0.1445,0.1445,0,0.145,0.145,0.145,0.1456,0.1456,0.1456,0.1456,0.146,0.146,0.146,0,0,0,0,0,0,0,0,0,0,0,0,0,0.144,0.144,0.1445,0.1445,0.1445,0.145,0.145,0.145,0.1456,0.1456,0.1456,0.1456,0.146,0.146,0.146,0,0,0,0,0,0,0,0,0,0,0,0,0,0.1443,0.144,0.1445,0.1449,0.1449,0.145,0.145,0.145,0.1456,0.1456,0.1456,0.1456,0.146,0.146,0.146,0.1457,0,0,0.146,0.146,0,0,0,0,0,0,0,0,0.1443,0.1443,0.1448,0.1449,0.1449,0.1453,0.1449,0.1452,0.1456,0.1453,0.1456,0.1457,0.1457,0.1458,0.1458,0.1457,0.1457,0.146,0.146,0.146,0.146,0,0,0,0,0,0,0,0.1443,0.1443,0.1447,0.1448,0.1449,0.145,0.145,0.145,0.1454,0.1454,0.1454,0.1455,0.1458,0.1458,0.1458,0.1457,0.146,0.146,0.146,0.146,0.1452,0.1451,0,0,0,0,0,0,0.1442,0.1443,0.1447,0.1447,0.1447,0.145,0.145,0.1451,0.1454,0.1455,0.1454,0.1455,0.1458,0.1458,0.1458,0.1453,0.146,0.146,0.146,0.1452,0.1451,0.1451,0,0,0,0,0,0,0.1442,0.1443,0.1447,0.1445,0.1446,0.145,0.1451,0.1451,0.1452,0.1455,0.1456,0.1454,0.1458,0.1458,0.1457,0.1454,0.146,0.146,0.1452,0.1452,0.1451,0.1445,0,0,0,0,0,0,0.1442,0.1443,0.1442,0.1445,0.1446,0.1446,0.145,0.1451,0.1452,0.1452,0.1455,0.1456,0.1458,0.1457,0.1457,0.1454,0.146,0.1452,0.1452,0.1451,0.1445,0.1444,0.1443,0,0,0,0,0,0.1442,0.144,0.1442,0.1442,0.1445,0.1446,0.1446,0.1449,0.1452,0.1451,0.1452,0.1455,0.1454,0.1456,0.1457,0.1454,0.1452,0.1452,0.1451,0.1446,0.1444,0.1443,0,0,0,0,0,0,0.1437,0.1441,0.1443,0.1442,0.1443,0.1447,0.1446,0.1448,0.1449,0.1449,0.1453,0.1453,0.1451,0.1452,0.1455,0.145,0.1454,0.1453,0.1449,0.1448,0.1447,0.1447,0.146,0,0,0,0,0,0.1435,0.1436,0.1439,0.1438,0.1439,0.1442,0.1442,0.1445,0.1446,0.1447,0.1448,0.1449,0.1449,0.1448,0.1448,0.1445,0.1445,0.1443,0.1442,0.1441,0.1441,0.1437,0.1436,0.145,0.145,0.145,0,0,0.1433,0.1435,0.1435,0.1437,0.1439,0.1438,0.1443,0.1442,0.1441,0.1446,0.1445,0.1446,0.1447,0.1444,0.1443,0.1445,0.1437,0.1441,0.144,0.144,0.1437,0.1435,0.1434,0.1449,0.1449,0.1449,0,0,0.1428,0.143,0.1429,0.143,0.1432,0.1434,0.1433,0.1436,0.1437,0.1435,0.1438,0.1437,0.1437,0.1437,0.1437,0.143,0.1432,0.1429,0.1424,0.1421,0.142,0.1419,0.1415,0.1414,0.1429,0.1429,0.1429,0,0.1425,0.1425,0.1428,0.1427,0.1427,0.1431,0.1429,0.143,0.1431,0.1431,0.1433,0.1432,0.1433,0.1429,0.1427,0.1428,0.1426,0.1429,0.142,0.1419,0.1418,0.1415,0.1414,0.1429,0.1429,0.1429,0.1429,0,0.142,0.142,0.1418,0.1419,0.1419,0.1418,0.142,0.142,0.1421,0.1422,0.142,0.1421,0.142,0.142,0.1422,0.1416,0.1417,0.142,0.1424,0.1417,0.1413,0.1412,0.1428,0.1428,0.1428,0.1428,0,0,0.1414,0.1415,0.1414,0.1414,0.1415,0.1415,0.1413,0.1412,0.1411,0.1411,0.1409,0.1407,0.1409,0.1409,0.1411,0.1408,0.1401,0.1411,0.1411,0.1408,0.1393,0.139,0.1389,0.1402,0.1402,0.1402,0.1392,0,0.1408,0.1406,0.1408,0.1404,0.1403,0.1406,0.1404,0.1404,0.1404,0.1403,0.1403,0.1402,0.1405,0.1405,0.1402,0.1402,0.1398,0.1403,0.1399,0.1399,0.1398,0.1387,0.1385,0.1376,0.1391,0.1391,0.1391,0,0.1403,0.1402,0.1398,0.1398,0.1398,0.1396,0.1394,0.1393,0.1393,0.1393,0.1392,0.1394,0.139,0.1394,0.1389,0.1393,0.1391,0.1391,0.139,0.139,0.1394,0.1385,0.1373,0.1371,0.1389,0.1389,0.1389,0,0.1397,0.1395,0.1392,0.1392,0.1392,0.1391,0.139,0.139,0.1389,0.1387,0.1386,0.1384,0.1383,0.1381,0.1381,0.1384,0.1375,0.138,0.1375,0.1375,0.1373,0.1373,0.1359,0.1373,0.1373,0.1373,0.1373,0,0.1391,0.1388,0.139,0.1388,0.1384,0.1386,0.1382,0.1382,0.1381,0.1379,0.1381,0.1378,0.1379,0.1376,0.1377,0.1371,0.1371,0.1371,0.1371,0.137,0.137,0.1369,0.1369,0.1372,0.1372,0.1373,0.1373,0,0.1384,0.1385,0.1382,0.1382,0.1381,0.1379,0.1378,0.1376,0.1376,0.1372,0.1371,0.1371,0.1368,0.1368,0.1364,0.1364,0.1357,0.1359,0.1358,0.1358,0.1352,0.1352,0.1337,0.1334,0.135,0.135,0.135,0,0.1381,0.1378,0.1377,0.1376,0.1375,0.1373,0.1371,0.1372,0.137,0.1368,0.1365,0.1362,0.1359,0.1353,0.1352,0.1349,0.1349,0.1344,0.1349,0.1348,0.1348,0.1348,0.1347,0.1343,0.1343,0.1343,0.1343,0,0.1373,0.1373,0.1371,0.1368,0.1366,0.1364,0.1363,0.1361,0.1361,0.1359,0.1355,0.1353,0.1348,0.1344,0.134,0.1339,0.134,0.1341,0.1339,0.1339,0.1338,0.1337,0.1354,0.1341,0.1342,0.1342,0.1342,0.1342,0.1367,0.1365,0.1363,0.136,0.1358,0.1356,0.1353,0.1353,0.135,0.1346,0.1346,0.1341,0.1339,0.1334,0.1332,0.1328,0.1329,0.1327,0.1327,0.1326,0.1325,0.1339,0.1327,0.1327,0.1327,0.1327,0.1327,0,0.1359,0.1358,0.1355,0.1352,0.1349,0.135,0.1348,0.1345,0.1341,0.1338,0.1335,0.1329,0.1325,0.1323,0.1318,0.1315,0.1315,0.1314,0.1314,0.1313,0.1324,0.1326,0.1313,0.1313,0.1313,0.1313,0.1313,0.1313,0.1355,0.135,0.1349,0.1343,0.1342,0.1337,0.1335,0.1332,0.133,0.1324,0.132,0.1319,0.1316,0.1311,0.1306,0.1305,0.1303,0.1301,0.1301,0.1311,0.1313,0.1314,0.1315,0.1301,0.1301,0.129,0.1289,0.1289]}]]